This demonstration page uses our WeatherBlox Daily Observations layout. Learn more.

Left ArrowRight Arrow

Hourly Observations for July 17, 2016

Temp ( °F °C ) Dew Point ( °F °C ) Humidity (%) Winds ( mph kmh ) Pressure ( in mb ) Visibility ( mi km ) Precip ( " mm )
12:53 am 00:53 Clear 72 22.2 67 19.4 84 84 Calm 30.14 1021 10 16 0.00 0.00
1:53 am 01:53 Clear 72 22.2 67 19.4 84 84 Calm 30.13 1020 10 16 0.00 0.00
2:53 am 02:53 Mostly Cloudy 71 21.7 67 19.4 87 87 Calm 30.12 1020 10 16 0.00 0.00
3:53 am 03:53 Clear 70 21.1 67 19.4 90 90 Calm 30.12 1020 10 16 0.00 0.00
4:53 am 04:53 Clear 70 21.1 67 19.4 90 90 Calm 30.11 1020 10 16 0.00 0.00
5:53 am 05:53 Clear 70 21.1 67 19.4 90 90 Calm 30.12 1020 10 16 0.00 0.00
6:53 am 06:53 Sunny 70 21.1 67 19.4 90 90 Calm 30.15 1021 10 16 0.00 0.00
7:53 am 07:53 Sunny 73 22.8 68 20 84 84 Calm 30.16 1022 10 16 0.00 0.00
8:53 am 08:53 Sunny 77 25 69 20.6 77 77 SW 5 7 30.18 1022 10 16 0.00 0.00
9:53 am 09:53 Sunny 80 26.7 70 21.1 71 71 Calm 30.19 1022 10 16 0.00 0.00
10:53 am 10:53 Sunny 84 28.9 70 21.1 63 63 SSE 6 9 30.19 1022 10 16 0.00 0.00
11:53 am 11:53 Partly Cloudy 85 29.4 70 21.1 61 61 VRB 5 7 30.20 1023 10 16 0.00 0.00
12:53 pm 12:53 Sunny 89 31.7 68 20 50 50 VRB 6 9 30.20 1023 10 16 0.00 0.00
1:53 pm 13:53 Mostly Cloudy 90 32.2 66 18.9 45 45 NW 9 15 30.18 1022 10 16 0.00 0.00
2:53 pm 14:53 Mostly Cloudy with Light Rain 87 30.6 72 22.2 61 61 NNW 8 13 30.16 1021 10 16 0.00 0.03
3:53 pm 15:53 Sunny 92 33.3 68 20 46 46 N 6 9 30.14 1021 10 16 0.00 0.03
4:53 pm 16:53 Sunny 91 32.8 67 19.4 45 45 Calm 30.13 1020 10 16 0.00 0.00
5:53 pm 17:53 Sunny 92 33.3 68 20 46 46 NW 5 7 30.12 1020 10 16 0.00 0.03
5:57 pm 17:57 Sunny with Thunderstorms 92 33.3 68 20 46 46 N 5 7 30.09 1019 10 16 0.00 0.00
6:19 pm 18:19 Partly Cloudy with Nearby Thunderstorms 92 33.3 67 19.4 44 44 N 3 6 30.09 1019 10 16 0.00 0.00
6:50 pm 18:50 Mostly Sunny 88 31 66 19 49 49 E 8 13 30.12 1020 10 16 0.00 0.00
6:53 pm 18:53 Mostly Sunny 88 31.1 66 18.9 48 48 ESE 7 11 30.13 1020 10 16 0.00 0.00
7:37 pm 19:37 Partly Cloudy 84 28.9 67 19.4 57 57 VRB 3 6 30.15 1021 10 16 0.00 0.00
7:53 pm 19:53 Partly Cloudy 84 28.9 68 20 59 59 W 5 7 30.16 1021 10 16 0.00 0.00
8:53 pm 20:53 Clear 82 27.8 69 20.6 65 65 Calm 30.17 1022 10 16 0.00 0.00
9:53 pm 21:53 Clear 83 28.3 68 20 61 61 E 6 9 30.17 1022 10 16 0.00 0.00
10:53 pm 22:53 Clear 81 27.2 69 20.6 67 67 SE 3 6 30.20 1023 10 16 0.00 0.00
11:53 pm 23:53 Mostly Clear 80 26.7 68 20 67 67 E 6 9 30.21 1023 10 16 0.00 0.00

Powered by AerisWeather